CDT,Max TemperatureF,Mean TemperatureF,Min TemperatureF,Max Dew PointF,MeanDew PointF,Min DewpointF,Max Humidity, Mean Humidity, Min Humidity, Max Sea Level PressureIn, Mean Sea Level PressureIn, Min Sea Level PressureIn, Max VisibilityMiles, Mean VisibilityMiles, Min VisibilityMiles, Max Wind SpeedMPH, Mean Wind SpeedMPH, Max Gust SpeedMPH,PrecipitationIn, CloudCover, Events, WindDirDegrees
2012-9-1,96,84,72,65,56,50,60,41,22,30.06,29.92,29.86,10,10,10,18,9,25,0.00,1,,166
2012-9-2,96,84,71,67,61,57,74,51,28,30.05,29.89,29.81,10,10,10,18,10,24,0.00,0,,162
2012-9-3,101,87,73,63,61,56,68,46,24,29.89,29.83,29.75,10,10,10,18,8,22,0.00,1,,155
2012-9-4,100,88,75,61,59,56,58,41,24,29.89,29.79,29.70,10,10,10,15,9,24,0.00,0,,162
2012-9-5,102,89,76,62,58,54,50,36,22,29.95,29.77,29.67,10,10,10,22,10,26,0.00,1,,157
2012-9-6,99,85,71,66,58,48,64,43,22,30.06,29.86,29.76,10,10,10,21,8,28,0.00,1,Thunderstorm,165
2012-9-7,102,88,73,61,51,46,43,30,16,29.95,29.81,29.72,10,10,5,35,12,45,0.00,1,,182
2012-9-8,76,66,56,55,48,42,86,60,33,30.25,30.12,29.96,10,10,7,36,15,43,0.05,2,Rain,25
2012-9-9,86,74,62,53,46,40,67,45,22,30.29,30.11,30.03,10,10,10,12,5,15,0.00,0,,14
2012-9-10,91,77,63,43,39,36,40,29,17,30.06,29.99,29.89,10,10,10,16,8,18,0.00,0,,148
2012-9-11,95,80,64,49,45,40,43,31,19,29.96,29.89,29.82,10,10,10,22,12,28,0.00,0,,164
2012-9-12,89,81,73,61,53,44,60,46,32,30.03,29.88,29.81,10,10,10,25,8,37,T,2,Rain-Thunderstorm,151
2012-9-13,74,66,57,64,60,55,93,79,64,30.36,30.13,29.92,10,9,2,25,15,30,0.20,7,Rain-Thunderstorm,14
2012-9-14,68,62,55,55,54,52,93,76,58,30.36,30.28,30.19,10,10,5,17,10,21,T,7,Rain,25
2012-9-15,62,57,52,56,53,51,100,89,78,30.31,30.21,30.12,10,8,3,14,4,16,0.20,4,Rain,293
2012-9-16,82,67,51,58,54,51,100,68,36,30.12,30.00,29.89,10,9,3,9,3,15,0.00,0,,187
2012-9-17,88,73,58,60,53,43,93,57,21,29.96,29.83,29.74,10,10,8,14,7,18,0.00,0,,152
2012-9-18,82,72,61,58,54,52,78,57,36,30.17,30.02,29.86,10,10,10,24,8,28,T,3,,48
2012-9-19,89,75,61,57,51,43,78,50,21,30.06,30.00,29.93,10,10,10,18,11,24,0.00,0,,187
2012-9-20,94,78,61,57,49,36,78,46,14,30.06,29.92,29.84,10,10,10,21,11,25,0.00,0,,185
2012-9-21,95,82,68,51,46,37,53,34,14,29.92,29.87,29.81,10,10,10,18,11,24,0.00,0,,181
2012-9-22,93,75,57,48,42,33,67,40,13,30.04,29.98,29.89,10,10,10,17,8,23,0.00,0,,156
2012-9-23,90,77,64,53,45,40,49,34,19,30.20,30.06,30.01,10,10,10,22,11,30,0.00,0,,176
2012-9-24,91,79,67,61,53,48,78,51,24,30.04,29.95,29.83,10,10,10,23,14,28,0.00,0,,178
2012-9-25,95,83,70,60,55,46,61,41,20,29.94,29.82,29.71,10,10,10,25,16,33,0.00,0,Thunderstorm,181
2012-9-26,91,81,70,68,62,57,84,59,34,29.99,29.85,29.77,10,10,7,23,12,29,0.02,1,Rain-Thunderstorm,168
2012-9-27,80,73,66,69,64,61,93,77,60,30.14,30.01,29.91,10,10,7,22,10,26,0.12,5,Rain,103
2012-9-28,67,65,62,66,64,61,100,94,87,30.12,30.04,29.94,10,5,1,22,12,28,4.66,8,Rain-Thunderstorm,67
2012-9-29,70,65,59,63,61,59,100,85,70,30.07,29.97,29.89,10,9,4,25,14,31,0.46,7,Rain,23
2012-9-30,80,68,55,62,59,55,100,74,48,30.02,29.95,29.84,10,10,2,30,6,38,0.18,1,Rain-Thunderstorm,338